Location: Aufkirchen
(47.9603°N, 11.3653°E)
Time: 18:27:39
(UTC+01:00)

Explorer 7 - All Passes

Search period start: 04 December 2020 00:00
Search period end: 14 December 2020 00:00
Orbit: 484 x 678 km, 50.3° (Epoch: 03 December)

Date Brightness Start Highest point End Pass type
(mag) Time Alt. Az. Time Alt. Az. Time Alt. Az.
04 Dec - 00:59:31 10° WSW 01:04:14 72° SSE 01:08:40 10° ENE night (unlit)
04 Dec - 02:40:21 10° W 02:44:54 64° N 02:49:11 10° ENE night (unlit)
04 Dec - 04:21:16 10° WNW 04:25:42 83° NNE 04:29:50 10° ESE visible
04 Dec - 06:02:09 10° W 06:05:58 33° SW 06:09:34 10° SSE visible
04 Dec - 23:24:18 10° SSW 23:28:31 31° SE 23:32:35 10° E night (unlit)
05 Dec - 01:04:06 10° WSW 01:08:50 89° SSE 01:13:18 10° ENE night (unlit)
05 Dec - 02:45:04 10° W 02:49:37 63° N 02:53:53 10° E night (unlit)
05 Dec - 04:25:55 10° WNW 04:30:20 80° SSW 04:34:28 10° ESE visible
05 Dec - 06:07:03 10° W 06:10:22 22° SW 06:13:32 10° S visible
05 Dec - 21:51:55 10° SSE 21:53:15 11° SE 21:54:34 10° ESE night (unlit)
05 Dec - 23:28:28 10° SW 23:33:00 43° SSE 23:37:22 10° ENE night (unlit)
06 Dec - 01:08:46 10° W 01:13:29 77° NNW 01:17:57 10° ENE night (unlit)
06 Dec - 02:49:46 10° WNW 02:54:20 66° N 02:58:35 10° E night (unlit)
06 Dec - 04:30:34 10° WNW 04:34:55 61° SSW 04:38:59 10° SE visible
06 Dec - 06:12:17 10° W 06:14:43 15° SW 06:17:04 10° S visible
06 Dec - 21:54:28 10° S 21:57:34 17° SE 22:00:36 10° E night (unlit)
06 Dec - 23:32:49 10° SW 23:37:32 59° SSE 23:42:04 10° ENE night (unlit)
07 Dec - 01:13:28 10° W 01:18:10 68° N 01:22:36 10° ENE night (unlit)
07 Dec - 02:54:27 10° WNW 02:59:01 74° NNE 03:03:17 10° E night (unlit)
07 Dec - 04:35:16 10° WNW 04:39:26 43° SSW 04:43:21 10° SE visible
07 Dec - 21:58:01 10° SSW 22:01:56 25° SE 22:05:46 10° E night (unlit)
07 Dec - 23:37:18 10° WSW 23:42:07 77° SSE 23:46:42 10° ENE night (unlit)
08 Dec - 01:18:11 10° W 01:22:52 64° N 01:27:17 10° E night (unlit)
08 Dec - 02:59:06 10° WNW 03:03:41 87° NNE 03:07:56 10° ESE night (unlit)
08 Dec - 04:40:02 10° W 04:43:54 30° SW 04:47:32 10° SSE visible
08 Dec - 22:01:58 10° SSW 22:06:22 35° SE 22:10:38 10° E night (unlit)
08 Dec - 23:41:54 10° WSW 23:46:45 87° NNW 23:51:20 10° ENE night (unlit)
09 Dec - 01:22:53 10° W 01:27:34 64° N 01:31:58 10° E night (unlit)
09 Dec - 03:03:44 10° WNW 03:08:17 75° SSW 03:12:31 10° ESE night (unlit)
09 Dec - 04:44:58 10° W 04:48:17 21° SW 04:51:26 10° S visible
09 Dec - 20:28:53 10° SSE 20:31:02 13° SE 20:33:10 10° ESE night (unlit)
09 Dec - 22:06:10 10° SW 22:10:51 48° SSE 22:15:23 10° ENE night (unlit)
09 Dec - 23:46:34 10° W 23:51:23 75° NNW 23:55:59 10° ENE night (unlit)
10 Dec - 01:27:34 10° WNW 01:32:16 69° N 01:36:40 10° E night (unlit)
10 Dec - 03:08:23 10° WNW 03:12:51 57° SSW 03:17:00 10° SE night (unlit)
10 Dec - 04:50:19 10° W 04:52:36 14° SW 04:54:48 10° SSW visible
10 Dec - 20:31:54 10° S 20:35:20 19° SE 20:38:45 10° E night (unlit)
10 Dec - 22:10:33 10° SW 22:15:23 65° SSE 22:20:03 10° ENE night (unlit)
10 Dec - 23:51:17 10° W 23:56:04 67° N 00:00:37 10° ENE night (unlit)
11 Dec - 01:32:14 10° WNW 01:36:56 77° NNE 01:41:21 10° E night (unlit)
11 Dec - 03:13:05 10° WNW 03:17:20 41° SW 03:21:20 10° SE night (unlit)
11 Dec - 20:35:35 10° SSW 20:39:43 28° SE 20:43:47 10° E night (unlit)
11 Dec - 22:15:04 10° WSW 22:19:57 82° SSE 22:24:41 10° ENE night (unlit)
11 Dec - 23:55:58 10° W 00:00:45 65° N 00:05:18 10° E night (unlit)
12 Dec - 01:36:52 10° WNW 01:41:35 89° S 01:45:59 10° ESE night (unlit)
12 Dec - 03:17:52 10° W 03:21:46 29° SW 03:25:27 10° SSE night (unlit)
12 Dec - 20:39:37 10° SSW 20:44:09 39° SE 20:48:36 10° ENE night (unlit)
12 Dec - 22:19:41 10° WSW 22:24:35 83° NNW 22:29:18 10° ENE night (unlit)
13 Dec - 00:00:40 10° W 00:05:27 66° N 00:10:00 10° E night (unlit)
13 Dec - 01:41:30 10° WNW 01:46:09 71° SSW 01:50:32 10° ESE night (unlit)
13 Dec - 03:22:52 10° W 03:26:07 20° SW 03:29:15 10° S night (unlit)
13 Dec - 19:06:07 10° SSE 19:08:46 15° SE 19:11:25 10° E visible
13 Dec - 20:43:52 10° SW 20:48:38 53° SSE 20:53:18 10° ENE visible
13 Dec - 22:24:22 10° W 22:29:14 73° NNW 22:33:56 10° ENE night (unlit)
